[[{"header":{"parameterUnit":"m.s-1","parameterCategory":1,"la1":30.2991,"la2":30.254,"lo1":-89.0895,"lo2":-89.0444,"dy":0.0017,"dx":0.0017,"nx":28,"ny":28,"refTime":"2024-06-01T03:00:00:Z","depth":0,"parameterNumber":2,"parameterNumberName":"U-component_of_WINDS"},"data":[0,0,0,0,0,0,0,0,0,0,0,0,0,0,0,0,0,0,0,0,0,0,0,0,0,0,0,0,0,0,0,0,0,0,0,0,0,0,0,0,0,0,0,0,0,0,0,0,0,0,0,0,0,0,0,0,0,0,2.7457,2.7459,0,2.7622,2.7624,2.7626,2.7717,2.7718,2.7718,2.7718,2.7879,2.7883,2.7887,0,0,0,0,0,0,0,0,0,0,0,0,0,2.7213,2.7217,2.7457,2.7459,2.7461,2.7622,2.7624,2.7626,2.7717,2.7718,2.7718,2.7718,2.7878,2.7883,2.7888,0,0,0,0,0,0,0,0,0,0,0,0,0,2.7342,2.7218,2.7456,2.7526,2.7534,2.7622,2.7624,2.7627,2.7717,2.7718,2.7718,2.7719,2.7877,2.7882,2.7888,2.7917,0,0,2.7907,2.7909,0,0,0,0,0,0,0,0,2.7335,2.7351,2.7514,2.7521,2.753,2.765,2.7598,2.7724,2.7717,2.7647,2.7718,2.7719,2.7802,2.7814,2.7844,2.7925,2.7932,2.7907,2.7911,2.7914,2.7915,0,0,0,0,0,0,0,2.7326,2.7345,2.7522,2.7516,2.7526,2.7547,2.7566,2.7622,2.772,2.7654,2.7661,2.7679,2.7807,2.7838,2.7849,2.7934,2.7907,2.7913,2.7916,2.7919,2.8048,2.8048,0,0,0,0,0,0,2.7307,2.7336,2.7517,2.7527,2.7432,2.7551,2.7572,2.7611,2.772,2.7737,2.7679,2.7683,2.7828,2.7841,2.7855,2.7897,2.7914,2.7919,2.7923,2.8048,2.8048,2.8047,0,0,0,0,0,0,2.7301,2.7322,2.751,2.7434,2.7459,2.7555,2.7598,2.7614,2.7646,2.7739,2.7756,2.7693,2.7829,2.7846,2.7902,2.7903,2.7922,2.7927,2.8048,2.8048,2.8048,2.7979,0,0,0,0,0,0,2.7294,2.7319,2.7333,2.7434,2.7463,2.7556,2.7598,2.7617,2.7657,2.7664,2.7757,2.7773,2.783,2.7892,2.7908,2.7912,2.7932,2.8048,2.8048,2.8048,2.7982,2.7977,2.7972,0,0,0,0,0,2.7285,2.7305,2.7333,2.7354,2.7482,2.7556,2.7573,2.7641,2.7656,2.767,2.773,2.777,2.7901,2.7897,2.7915,2.7921,2.8049,2.8048,2.8048,2.7984,2.7978,2.7973,0,0,0,0,0,0,2.7198,2.7319,2.7352,2.7406,2.747,2.7571,2.759,2.7632,2.7691,2.7694,2.7774,2.7794,2.7842,2.7887,2.7881,2.7956,2.7979,2.7982,2.7924,2.7919,2.7914,2.7902,2.7937,0,0,0,0,0,2.7186,2.7238,2.734,2.7378,2.7409,2.7494,2.7528,2.7576,2.7645,2.7671,2.7736,2.7799,2.7855,2.789,2.7946,2.7989,2.8011,2.8002,2.7998,2.7993,2.7995,2.8022,2.8019,2.8046,2.8046,2.8046,0,0,2.7159,2.7232,2.726,2.7362,2.7418,2.7468,2.7516,2.7567,2.7605,2.7678,2.7736,2.7785,2.7861,2.7911,2.7936,2.795,2.7992,2.7993,2.7989,2.7993,2.8021,2.8018,2.8016,2.8046,2.8046,2.8046,0,0,2.7138,2.7199,2.7237,2.7293,2.7379,2.7435,2.7444,2.754,2.7577,2.7637,2.7693,2.7738,2.7832,2.7885,2.7923,2.7924,2.7963,2.794,2.7915,2.7941,2.7938,2.7937,2.7937,2.7937,2.7942,2.7941,2.7941,0,2.7094,2.7175,2.7251,2.73,2.7343,2.7416,2.7455,2.7504,2.7602,2.7629,2.7644,2.7765,2.7821,2.7885,2.7886,2.7914,2.7926,2.7929,2.7933,2.7932,2.7932,2.7933,2.7933,2.7938,2.7938,2.7939,2.7939,0,2.7117,2.7172,2.7193,2.7289,2.7335,2.7378,2.7459,2.7495,2.7539,2.7593,2.7653,2.7724,2.7796,2.7815,2.7856,2.7885,2.7891,2.7918,2.7943,2.7925,2.7927,2.7929,2.7933,2.7935,2.7936,2.7936,0,0,2.7043,2.7184,2.719,2.7235,2.7336,2.7379,2.7425,2.7499,2.7529,2.7594,2.7634,2.7714,2.7741,2.7785,2.7833,2.7855,2.7852,2.7881,2.7884,2.7873,2.7888,2.7867,2.7866,2.7879,2.788,2.788,2.7882,0,2.7035,2.7126,2.7197,2.7259,2.7311,2.7382,2.7422,2.7487,2.754,2.759,2.7647,2.7703,2.7734,2.7761,2.7787,2.7847,2.7856,2.7848,2.7916,2.7917,2.7894,2.7867,2.7844,2.7843,2.7883,2.7884,2.7884,0,2.7038,2.7105,2.7174,2.7271,2.7296,2.7331,2.7405,2.7453,2.7528,2.7565,2.7615,2.7666,2.7717,2.7738,2.7809,2.7802,2.7834,2.7868,2.7869,2.7877,2.7899,2.7874,2.7844,2.7843,2.7886,2.7886,2.7886,0,2.6978,2.7084,2.714,2.7176,2.7291,2.7314,2.7363,2.7439,2.7479,2.7543,2.757,2.7638,2.7675,2.7726,2.7794,2.7803,2.7857,2.7884,2.7888,2.7886,2.7895,2.7894,2.7869,2.7917,2.7917,2.7917,2.7917,0,2.6962,2.7,2.7115,2.7148,2.7194,2.7275,2.7317,2.7371,2.7438,2.7483,2.7547,2.7587,2.7674,2.7724,2.7777,2.7828,2.7844,2.7874,2.7887,2.7868,2.7864,2.7889,2.7891,2.7917,2.7917,2.7917,2.7917,0,2.69,2.6979,2.7044,2.7149,2.7176,2.7205,2.7294,2.7328,2.7386,2.7441,2.7459,2.7548,2.761,2.7683,2.7768,2.7804,2.785,2.787,2.7825,2.7833,2.7834,2.7832,2.7823,2.7826,2.7872,2.7871,2.7871,0,2.6885,2.6917,2.7027,2.7063,2.7111,2.7167,2.721,2.7291,2.7332,2.7422,2.7445,2.7514,2.7572,2.7668,2.7739,2.7805,2.7827,2.7819,2.7837,2.7817,2.7826,2.7823,2.7827,2.7814,2.7813,2.7812,2.7812,0,2.6848,2.6886,2.6947,2.7022,2.7073,2.7135,2.7199,2.7224,2.7318,2.7361,2.7428,2.7473,2.7563,2.7629,2.7704,2.7752,2.7797,2.7806,2.7811,2.779,2.7763,2.7778,2.7812,2.7805,2.7806,2.7806,2.7807,2.7807,2.6809,2.6842,2.6925,2.6991,2.7049,2.7109,2.7148,2.7212,2.727,2.735,2.7394,2.7459,2.7535,2.7641,2.7688,2.7739,2.7754,2.776,2.7762,2.7762,2.7756,2.7756,2.7753,2.7753,2.7753,2.7753,2.7754,0,2.6776,2.6834,2.6894,2.6985,2.7037,2.7079,2.7153,2.7193,2.7251,2.7319,2.7376,2.7453,2.7518,2.7596,2.7666,2.7692,2.7714,2.7708,2.7706,2.7716,2.7739,2.7728,2.7689,2.7689,2.7689,2.7689,2.7689,2.7689,2.6764,2.6823,2.6871,2.6958,2.7015,2.7083,2.7121,2.7176,2.7232,2.7315,2.7372,2.7423,2.7495,2.7571,2.7633,2.7654,2.7676,2.7663,2.769,2.7709,2.7714,2.772,2.771,2.7668,2.7667,2.7663,2.7663,2.7663]},{"header":{"parameterUnit":"m.s-1","parameterCategory":1,"la1":30.2991,"la2":30.254,"lo1":-89.0895,"lo2":-89.0444,"dy":0.0017,"dx":0.0017,"nx":28,"ny":28,"refTime":"2024-06-01T03:00:00:Z","depth":0,"parameterNumber":3,"parameterNumberName":"V-component_of_WINDS"},"data":[0,0,0,0,0,0,0,0,0,0,0,0,0,0,0,0,0,0,0,0,0,0,0,0,0,0,0,0,0,0,0,0,0,0,0,0,0,0,0,0,0,0,0,0,0,0,0,0,0,0,0,0,0,0,0,0,0,0,2.0911,2.0911,0,2.0975,2.0976,2.0977,2.104,2.1041,2.1042,2.1043,2.1102,2.1103,2.1104,0,0,0,0,0,0,0,0,0,0,0,0,0,2.0836,2.0837,2.0911,2.0911,2.0912,2.0975,2.0976,2.0977,2.104,2.1041,2.1042,2.1043,2.1102,2.1103,2.1104,0,0,0,0,0,0,0,0,0,0,0,0,0,2.0881,2.0837,2.091,2.0952,2.0956,2.0975,2.0976,2.0977,2.104,2.1041,2.1042,2.1044,2.1101,2.1103,2.1104,2.1085,0,0,2.1107,2.1108,0,0,0,0,0,0,0,0,2.0878,2.0884,2.0945,2.0949,2.0954,2.1001,2.0972,2.1013,2.104,2.1008,2.1043,2.1044,2.1067,2.1071,2.108,2.1088,2.1091,2.1107,2.1108,2.1109,2.1109,0,0,0,0,0,0,0,2.0875,2.0881,2.0936,2.0945,2.0951,2.0965,2.0973,2.098,2.1029,2.1011,2.1015,2.1023,2.107,2.1079,2.1082,2.1092,2.1107,2.1108,2.1109,2.111,2.1088,2.1087,0,0,0,0,0,0,2.0867,2.0878,2.0934,2.0938,2.0919,2.0965,2.0974,2.0984,2.1029,2.1038,2.1021,2.1025,2.1076,2.1081,2.1084,2.1066,2.1109,2.111,2.111,2.109,2.1088,2.1087,0,0,0,0,0,0,2.0865,2.0871,2.0931,2.091,2.0918,2.0965,2.0976,2.0985,2.0995,2.1038,2.1046,2.1022,2.1077,2.1083,2.1085,2.1069,2.111,2.1111,2.1091,2.1089,2.1087,2.1028,0,0,0,0,0,0,2.0862,2.087,2.0865,2.0909,2.0919,2.0933,2.0976,2.0985,2.0997,2.1003,2.1041,2.1048,2.1079,2.1083,2.1086,2.1071,2.1112,2.1093,2.109,2.1088,2.1032,2.1025,2.1018,0,0,0,0,0,2.086,2.0844,2.0864,2.087,2.0914,2.0932,2.0937,2.0975,2.0996,2.099,2.1018,2.1047,2.1071,2.1083,2.1087,2.1072,2.1094,2.1091,2.1088,2.1035,2.1026,2.1019,0,0,0,0,0,0,2.0793,2.085,2.0873,2.0872,2.0897,2.0942,2.0936,2.0964,2.0982,2.0986,2.103,2.1038,2.1036,2.1054,2.1067,2.1057,2.1086,2.1084,2.1044,2.1036,2.103,2.1024,2.1113,0,0,0,0,0,2.0779,2.0791,2.0839,2.0833,2.0845,2.0888,2.0897,2.0925,2.0951,2.0961,2.0989,2.1012,2.1025,2.1032,2.1046,2.1036,2.1044,2.1027,2.1021,2.1015,2.1012,2.1007,2.1,2.1077,2.1077,2.1077,0,0,2.0748,2.0781,2.0785,2.0821,2.0843,2.0853,2.0896,2.0904,2.0911,2.0962,2.0966,2.0988,2.1016,2.1012,2.1012,2.1028,2.0993,2.1011,2.1006,2.1006,2.1004,2.0996,2.099,2.1075,2.1076,2.1076,0,0,2.0698,2.0724,2.0722,2.0745,2.078,2.0809,2.0809,2.0851,2.0867,2.0874,2.0912,2.092,2.0941,2.096,2.0972,2.093,2.0957,2.0934,2.0897,2.0893,2.0887,2.0881,2.0866,2.0859,2.0931,2.0931,2.0931,0,2.0654,2.0672,2.0717,2.0723,2.0737,2.0787,2.0785,2.0803,2.0839,2.0847,2.0865,2.0894,2.0916,2.0917,2.0907,2.0916,2.0915,2.0928,2.0884,2.088,2.0875,2.0861,2.0855,2.0928,2.0928,2.0928,2.0929,0,2.0617,2.0629,2.0623,2.066,2.0674,2.0675,2.0718,2.0727,2.0753,2.078,2.0786,2.0815,2.0836,2.0839,2.0864,2.0843,2.0852,2.0877,2.0907,2.0864,2.0851,2.0846,2.0923,2.0924,2.0925,2.0926,0,0,2.0523,2.0588,2.0584,2.0602,2.0645,2.0654,2.0658,2.0681,2.0687,2.071,2.0713,2.0731,2.0755,2.0769,2.0797,2.0793,2.0757,2.0818,2.0819,2.0804,2.0735,2.0715,2.0708,2.0776,2.0776,2.0775,2.0733,0,2.0478,2.0491,2.0532,2.0531,2.0542,2.059,2.0594,2.0619,2.0645,2.0656,2.0684,2.0696,2.0727,2.0735,2.0734,2.0762,2.0743,2.0766,2.0777,2.0777,2.0767,2.0702,2.068,2.0639,2.0728,2.0727,2.0726,0,2.0427,2.0451,2.0451,2.0496,2.0502,2.0504,2.0529,2.0541,2.057,2.0589,2.0606,2.0638,2.0643,2.0673,2.068,2.0694,2.0701,2.0716,2.0715,2.0716,2.0748,2.0699,2.0627,2.062,2.0719,2.072,2.072,0,2.0357,2.0389,2.0394,2.0408,2.046,2.046,2.0481,2.0513,2.0525,2.0546,2.0554,2.0574,2.0585,2.06,2.0636,2.0655,2.0638,2.0671,2.0652,2.0651,2.0644,2.0644,2.057,2.0652,2.0652,2.0652,2.0652,0,2.0302,2.0299,2.0364,2.0366,2.0365,2.0413,2.041,2.0435,2.0464,2.0471,2.0514,2.0519,2.0567,2.0578,2.0606,2.0606,2.0611,2.0625,2.0632,2.062,2.0618,2.0624,2.0627,2.065,2.0651,2.0651,2.0651,0,2.0222,2.0265,2.0274,2.0323,2.0336,2.0333,2.0374,2.0378,2.0408,2.0416,2.042,2.0466,2.048,2.0519,2.0542,2.0562,2.0553,2.0568,2.0544,2.0548,2.0527,2.0527,2.0453,2.0445,2.0533,2.0532,2.0531,0,2.0183,2.0183,2.0234,2.0243,2.0264,2.0278,2.0291,2.0338,2.0349,2.0385,2.0383,2.0402,2.0419,2.044,2.0473,2.0492,2.0506,2.0479,2.0509,2.0497,2.0504,2.0503,2.0502,2.0471,2.047,2.0469,2.0468,0,2.0108,2.013,2.0149,2.0176,2.0191,2.0214,2.0238,2.0242,2.0295,2.0306,2.0323,2.0336,2.0362,2.0379,2.0404,2.0423,2.0453,2.0459,2.0456,2.0442,2.0428,2.0434,2.0524,2.046,2.0461,2.0461,2.0462,2.0462,2.0047,2.0049,2.0086,2.0106,2.013,2.0153,2.0159,2.0191,2.0207,2.0234,2.026,2.0274,2.0304,2.034,2.0358,2.0368,2.0384,2.0379,2.0377,2.0375,2.0369,2.0428,2.0373,2.0373,2.0373,2.0373,2.0374,0,1.9973,2.0,2.0018,2.0053,2.0068,2.01,2.0129,2.0139,2.0152,2.0179,2.0196,2.0216,2.0233,2.0269,2.029,2.0291,2.0305,2.0294,2.0293,2.0297,2.0354,2.0355,2.0282,2.0282,2.0282,2.0282,2.0282,2.0282,1.9936,1.9943,1.997,1.9988,2.0015,2.0031,2.0045,2.0066,2.0088,2.0109,2.0125,2.015,2.018,2.0203,2.022,2.023,2.0235,2.0219,2.0233,2.0285,2.0293,2.0301,2.0302,2.022,2.022,2.0175,2.0175,2.0175]}]]